| time (UTC) | temp F | wind direction | speed MPH | gust MPH | rain 1hr in | rain 24hr in | rain mn in | humidity % | barometer mb |
| 20260901220107 | 91 | 269 | 1.0 | 7.0 | 0.00 | 0.00 | 0.00 | 42 | 1015.4 |
| 20260901215551 | 91 | 0 | 3.0 | 7.0 | 0.00 | 0.00 | 0.00 | 41 | 1015.5 |
| 20260901215051 | 91 | 0 | 1.0 | 7.0 | 0.00 | 0.00 | 0.00 | 43 | 1015.5 |
| 20260901214557 | 91 | 44 | 2.0 | 7.0 | 0.00 | 0.00 | 0.00 | 42 | 1015.7 |
| 20260901214051 | 92 | 0 | 2.0 | 12.0 | 0.00 | 0.00 | 0.00 | 41 | 1015.7 |
| 20260901213551 | 92 | 252 | 4.0 | 12.0 | 0.00 | 0.00 | 0.00 | 42 | 1015.8 |
| 20260901213103 | 92 | 340 | 4.0 | 10.0 | 0.00 | 0.00 | 0.00 | 41 | 1015.8 |
| 20260901212553 | 92 | 268 | 3.0 | 8.0 | 0.00 | 0.00 | 0.00 | 42 | 1015.9 |
| 20260901212052 | 92 | 0 | 2.0 | 8.0 | 0.00 | 0.00 | 0.00 | 41 | 1016.1 |
| 20260901211602 | 92 | 317 | 1.0 | 8.0 | 0.00 | 0.00 | 0.00 | 40 | 1016.2 |
| 20260901211051 | 92 | 0 | 1.0 | 11.0 | 0.00 | 0.00 | 0.00 | 43 | 1016.2 |
| 20260901210551 | 91 | 262 | 5.0 | 11.0 | 0.00 | 0.00 | 0.00 | 45 | 1016.2 |
| 20260901210101 | 91 | 49 | 2.0 | 6.0 | 0.00 | 0.00 | 0.00 | 43 | 1016.4 |
| 20260901205551 | 90 | 35 | 1.0 | 9.0 | 0.00 | 0.04 | 0.00 | 44 | 1016.6 |
| 20260901205050 | 90 | 352 | 1.0 | 21.0 | 0.00 | 0.04 | 0.00 | 44 | 1016.5 |
| 20260901204558 | 90 | 32 | 2.0 | 21.0 | 0.00 | 0.04 | 0.00 | 41 | 1016.6 |
| 20260901204051 | 90 | 352 | 7.0 | 21.0 | 0.00 | 0.04 | 0.00 | 43 | 1016.6 |
| 20260901203553 | 90 | 234 | 1.0 | 8.0 | 0.00 | 0.04 | 0.00 | 42 | 1016.7 |
| 20260901203107 | 90 | 238 | 1.0 | 8.0 | 0.00 | 0.04 | 0.00 | 44 | 1016.9 |
| 20260901202551 | 90 | 278 | 3.0 | 8.0 | 0.00 | 0.04 | 0.00 | 43 | 1016.9 |
| 20260901202051 | 90 | 138 | 1.0 | 5.0 | 0.00 | 0.04 | 0.00 | 43 | 1017.0 |
| 20260901201559 | 89 | 57 | 2.0 | 5.0 | 0.00 | 0.04 | 0.00 | 42 | 1017.1 |
| 20260901201052 | 89 | 19 | 1.0 | 8.0 | 0.00 | 0.04 | 0.00 | 43 | 1017.1 |
| 20260901200553 | 89 | 0 | 1.0 | 8.0 | 0.00 | 0.04 | 0.00 | 43 | 1017.2 |
| 20260901200059 | 89 | 260 | 4.0 | 8.0 | 0.00 | 0.04 | 0.00 | 43 | 1017.2 |
| 20260901195552 | 89 | 298 | 1.0 | 8.0 | 0.00 | 0.12 | 0.00 | 45 | 1017.2 |
| 20260901195052 | 89 | 298 | 2.0 | 8.0 | 0.00 | 0.12 | 0.00 | 45 | 1017.2 |
| 20260901194559 | 89 | 342 | 1.0 | 7.0 | 0.00 | 0.12 | 0.00 | 44 | 1017.3 |
| 20260901194053 | 88 | 138 | 1.0 | 7.0 | 0.00 | 0.12 | 0.00 | 43 | 1017.3 |
| 20260901193552 | 88 | 11 | 2.0 | 7.0 | 0.00 | 0.12 | 0.00 | 44 | 1017.4 |
| 20260901193111 | 89 | 352 | 2.0 | 7.0 | 0.00 | 0.12 | 0.00 | 43 | 1017.4 |
| 20260901192551 | 88 | 333 | 2.0 | 6.0 | 0.00 | 0.12 | 0.00 | 44 | 1017.5 |
| 20260901192050 | 88 | 5 | 2.0 | 5.0 | 0.00 | 0.12 | 0.00 | 44 | 1017.5 |
| 20260901191603 | 88 | 55 | 1.0 | 6.0 | 0.00 | 0.12 | 0.00 | 45 | 1017.5 |
| 20260901191051 | 88 | 151 | 1.0 | 6.0 | 0.00 | 0.12 | 0.00 | 43 | 1017.6 |
| 20260901190552 | 88 | 151 | 1.0 | 5.0 | 0.00 | 0.12 | 0.00 | 44 | 1017.6 |
| 20260901190101 | 88 | 0 | 2.0 | 5.0 | 0.00 | 0.12 | 0.00 | 45 | 1017.7 |
| 20260901185552 | 88 | 211 | 1.0 | 5.0 | 0.00 | 0.21 | 0.00 | 47 | 1017.8 |
| 20260901185052 | 88 | 211 | 2.0 | 5.0 | 0.00 | 0.21 | 0.00 | 46 | 1017.7 |
| 20260901184603 | 87 | 210 | 1.0 | 6.0 | 0.00 | 0.21 | 0.00 | 46 | 1017.8 |
| 20260901184051 | 87 | 0 | 1.0 | 6.0 | 0.00 | 0.21 | 0.00 | 46 | 1017.8 |
| 20260901183552 | 87 | 215 | 1.0 | 6.0 | 0.00 | 0.21 | 0.00 | 46 | 1018.0 |
| 20260901183108 | 86 | 0 | 0.0 | 4.0 | 0.00 | 0.21 | 0.00 | 46 | 1018.0 |
| 20260901182554 | 86 | 42 | 1.0 | 5.0 | 0.00 | 0.21 | 0.00 | 47 | 1018.0 |
| 20260901182052 | 85 | 41 | 2.0 | 5.0 | 0.00 | 0.21 | 0.00 | 48 | 1018.1 |
| 20260901181602 | 85 | 45 | 2.0 | 5.0 | 0.00 | 0.21 | 0.00 | 46 | 1018.1 |
| 20260901181051 | 86 | 306 | 2.0 | 5.0 | 0.00 | 0.21 | 0.00 | 47 | 1018.1 |
| 20260901180556 | 86 | 72 | 0.0 | 5.0 | 0.00 | 0.21 | 0.00 | 46 | 1018.2 |
| 20260901180104 | 85 | 72 | 1.0 | 6.0 | 0.00 | 0.21 | 0.00 | 47 | 1018.2 |
| 20260901175552 | 85 | 73 | 3.0 | 6.0 | 0.00 | 0.37 | 0.00 | 48 | 1018.2 |
| 20260901175055 | 85 | 89 | 1.0 | 7.0 | 0.00 | 0.37 | 0.00 | 49 | 1018.2 |
| 20260901174608 | 85 | 98 | 2.0 | 7.0 | 0.00 | 0.37 | 0.00 | 49 | 1018.2 |
| 20260901174051 | 84 | 63 | 3.0 | 7.0 | 0.00 | 0.37 | 0.00 | 47 | 1018.2 |
| 20260901173551 | 84 | 0 | 1.0 | 8.0 | 0.00 | 0.37 | 0.00 | 50 | 1018.2 |
| 20260901173101 | 84 | 67 | 3.0 | 8.0 | 0.00 | 0.37 | 0.00 | 48 | 1018.2 |
| 20260901172551 | 84 | 68 | 0.0 | 7.0 | 0.00 | 0.37 | 0.00 | 52 | 1018.2 |
| 20260901172051 | 84 | 65 | 2.0 | 7.0 | 0.00 | 0.37 | 0.00 | 51 | 1018.2 |
| 20260901171608 | 84 | 103 | 2.0 | 6.0 | 0.00 | 0.37 | 0.00 | 53 | 1018.2 |
| 20260901171051 | 83 | 103 | 2.0 | 6.0 | 0.00 | 0.37 | 0.00 | 53 | 1018.2 |
| 20260901170551 | 83 | 111 | 0.0 | 7.0 | 0.00 | 0.37 | 0.00 | 54 | 1018.2 |
| 20260901170104 | 83 | 113 | 3.0 | 7.0 | 0.00 | 0.37 | 0.00 | 54 | 1018.3 |
| 20260901165552 | 82 | 136 | 2.0 | 7.0 | 0.00 | 0.38 | 0.00 | 54 | 1018.2 |
| 20260901165051 | 82 | 145 | 3.0 | 8.0 | 0.00 | 0.38 | 0.00 | 55 | 1018.3 |
| 20260901164559 | 81 | 128 | 3.0 | 8.0 | 0.00 | 0.38 | 0.00 | 56 | 1018.3 |
| 20260901164051 | 81 | 96 | 2.0 | 10.0 | 0.00 | 0.38 | 0.00 | 60 | 1018.4 |
| 20260901163552 | 80 | 90 | 3.0 | 10.0 | 0.00 | 0.38 | 0.00 | 60 | 1018.3 |
| 20260901163121 | 80 | 95 | 4.0 | 10.0 | 0.00 | 0.38 | 0.00 | 62 | 1018.2 |
| 20260901162551 | 80 | 92 | 4.0 | 9.0 | 0.00 | 0.38 | 0.00 | 62 | 1018.3 |
| 20260901162051 | 80 | 89 | 3.0 | 8.0 | 0.00 | 0.38 | 0.00 | 63 | 1018.2 |
| 20260901161602 | 80 | 94 | 2.0 | 8.0 | 0.00 | 0.38 | 0.00 | 64 | 1018.3 |
| 20260901161055 | 80 | 119 | 2.0 | 9.0 | 0.00 | 0.38 | 0.00 | 64 | 1018.4 |
| 20260901160551 | 79 | 124 | 3.0 | 9.0 | 0.00 | 0.38 | 0.00 | 63 | 1018.4 |
| 20260901160106 | 79 | 93 | 3.0 | 9.0 | 0.00 | 0.38 | 0.00 | 64 | 1018.5 |
| 20260901155551 | 79 | 90 | 4.0 | 10.0 | 0.00 | 0.38 | 0.00 | 64 | 1018.5 |
| 20260901155053 | 79 | 131 | 4.0 | 10.0 | 0.00 | 0.38 | 0.00 | 65 | 1018.4 |
| 20260901154600 | 79 | 98 | 2.0 | 8.0 | 0.00 | 0.38 | 0.00 | 65 | 1018.3 |
| 20260901154055 | 79 | 109 | 3.0 | 8.0 | 0.00 | 0.38 | 0.00 | 66 | 1018.4 |
| 20260901153555 | 78 | 123 | 2.0 | 8.0 | 0.00 | 0.38 | 0.00 | 65 | 1018.4 |
| 20260901153059 | 78 | 113 | 3.0 | 8.0 | 0.00 | 0.38 | 0.00 | 66 | 1018.3 |
| 20260901152551 | 78 | 139 | 3.0 | 9.0 | 0.00 | 0.38 | 0.00 | 68 | 1018.3 |
| 20260901152052 | 77 | 127 | 4.0 | 9.0 | 0.00 | 0.38 | 0.00 | 67 | 1018.3 |
| 20260901151606 | 77 | 128 | 4.0 | 8.0 | 0.00 | 0.38 | 0.00 | 68 | 1018.2 |
| 20260901151051 | 77 | 105 | 3.0 | 8.0 | 0.00 | 0.38 | 0.00 | 70 | 1018.2 |
| 20260901150550 | 76 | 115 | 3.0 | 7.0 | 0.00 | 0.38 | 0.00 | 72 | 1018.2 |
| 20260901150126 | 76 | 101 | 3.0 | 8.0 | 0.00 | 0.38 | 0.00 | 73 | 1018.2 |
| 20260901145554 | 75 | 92 | 2.0 | 8.0 | 0.00 | 0.38 | 0.00 | 74 | 1018.2 |
| 20260901145054 | 75 | 89 | 2.0 | 8.0 | 0.00 | 0.38 | 0.00 | 75 | 1018.2 |
| 20260901144626 | 74 | 86 | 3.0 | 8.0 | 0.00 | 0.38 | 0.00 | 75 | 1018.2 |
| 20260901144056 | 74 | 95 | 3.0 | 8.0 | 0.00 | 0.38 | 0.00 | 75 | 1018.3 |
| 20260901143554 | 74 | 90 | 2.0 | 7.0 | 0.00 | 0.38 | 0.00 | 77 | 1018.2 |
| 20260901143109 | 74 | 96 | 2.0 | 7.0 | 0.00 | 0.38 | 0.00 | 77 | 1018.1 |
| 20260901142553 | 74 | 98 | 2.0 | 7.0 | 0.00 | 0.38 | 0.00 | 76 | 1018.2 |
| 20260901142054 | 74 | 100 | 2.0 | 6.0 | 0.00 | 0.38 | 0.00 | 77 | 1018.1 |
| 20260901141604 | 73 | 59 | 1.0 | 5.0 | 0.00 | 0.38 | 0.00 | 79 | 1018.1 |
| 20260901141057 | 73 | 145 | 1.0 | 4.0 | 0.00 | 0.38 | 0.00 | 79 | 1018.1 |
| 20260901140557 | 73 | 146 | 2.0 | 4.0 | 0.00 | 0.38 | 0.00 | 80 | 1018.0 |
| 20260901140120 | 73 | 146 | 2.0 | 4.0 | 0.00 | 0.38 | 0.00 | 80 | 1017.9 |
| 20260901135556 | 73 | 148 | 0.0 | 3.0 | 0.00 | 0.41 | 0.00 | 80 | 1017.8 |
| 20260901135055 | 72 | 0 | 0.0 | 2.0 | 0.00 | 0.41 | 0.00 | 82 | 1017.7 |
| 20260901134629 | 71 | 148 | 0.0 | 2.0 | 0.00 | 0.41 | 0.00 | 83 | 1017.8 |
| 20260901134054 | 71 | 0 | 0.0 | 0.0 | 0.00 | 0.41 | 0.00 | 85 | 1017.7 |
| 20260901133553 | 71 | 0 | 0.0 | 0.0 | 0.00 | 0.41 | 0.00 | 86 | 1017.7 |
| 20260901133101 | 70 | 0 | 0.0 | 3.0 | 0.00 | 0.41 | 0.00 | 86 | 1017.7 |
| 20260901132557 | 70 | 0 | 0.0 | 5.0 | 0.00 | 0.41 | 0.00 | 86 | 1017.7 |
| 20260901132054 | 70 | 0 | 0.0 | 5.0 | 0.00 | 0.41 | 0.00 | 86 | 1017.6 |
| 20260901131608 | 70 | 148 | 1.0 | 5.0 | 0.00 | 0.41 | 0.00 | 85 | 1017.6 |
| 20260901131053 | 70 | 0 | 1.0 | 5.0 | 0.00 | 0.41 | 0.00 | 85 | 1017.5 |
| 20260901130557 | 70 | 0 | 0.0 | 2.0 | 0.00 | 0.41 | 0.00 | 85 | 1017.5 |
| 20260901130112 | 70 | 0 | 0.0 | 1.0 | 0.00 | 0.41 | 0.00 | 85 | 1017.4 |
| 20260901125554 | 70 | 0 | 0.0 | 0.0 | 0.00 | 0.52 | 0.00 | 84 | 1017.4 |
| 20260901125054 | 70 | 0 | 0.0 | 2.0 | 0.00 | 0.52 | 0.00 | 84 | 1017.2 |
| 20260901124609 | 70 | 0 | 0.0 | 3.0 | 0.00 | 0.52 | 0.00 | 83 | 1017.1 |
| 20260901124049 | 70 | 0 | 0.0 | 5.0 | 0.00 | 0.52 | 0.00 | 83 | 1017.0 |
| 20260901123550 | 70 | 148 | 1.0 | 5.0 | 0.00 | 0.52 | 0.00 | 84 | 1017.0 |
| 20260901123101 | 69 | 0 | 0.0 | 2.0 | 0.00 | 0.52 | 0.00 | 85 | 1017.0 |
| 20260901122554 | 70 | 0 | 0.0 | 0.0 | 0.00 | 0.52 | 0.00 | 85 | 1017.0 |
| 20260901122049 | 70 | 0 | 0.0 | 5.0 | 0.00 | 0.52 | 0.00 | 85 | 1017.0 |
| 20260901121604 | 70 | 0 | 0.0 | 5.0 | 0.00 | 0.52 | 0.00 | 85 | 1016.9 |
| 20260901121049 | 69 | 148 | 1.0 | 4.0 | 0.00 | 0.52 | 0.00 | 86 | 1016.9 |
| 20260901120550 | 69 | 148 | 0.0 | 2.0 | 0.00 | 0.52 | 0.00 | 87 | 1016.8 |
| 20260901115549 | 69 | 148 | 0.0 | 0.0 | 0.00 | 0.56 | 0.00 | 88 | 1016.7 |
| 20260901115049 | 69 | 0 | 0.0 | 0.0 | 0.00 | 0.56 | 0.00 | 88 | 1016.7 |
| 20260901114620 | 69 | 0 | 0.0 | 3.0 | 0.00 | 0.56 | 0.00 | 88 | 1016.7 |
| 20260901114050 | 69 | 0 | 0.0 | 3.0 | 0.00 | 0.56 | 0.00 | 88 | 1016.6 |
| 20260901113549 | 69 | 148 | 0.0 | 1.0 | 0.00 | 0.56 | 0.00 | 87 | 1016.7 |
| 20260901113140 | 69 | 0 | 0.0 | 0.0 | 0.00 | 0.56 | 0.00 | 87 | 1016.7 |
| 20260901112549 | 69 | 0 | 0.0 | 0.0 | 0.00 | 0.56 | 0.00 | 87 | 1016.6 |
| 20260901112049 | 69 | 0 | 0.0 | 0.0 | 0.00 | 0.56 | 0.00 | 86 | 1016.7 |
| 20260901111602 | 69 | 0 | 0.0 | 0.0 | 0.00 | 0.56 | 0.00 | 86 | 1016.7 |
| 20260901111050 | 69 | 0 | 0.0 | 0.0 | 0.00 | 0.56 | 0.00 | 86 | 1016.7 |
| 20260901110553 | 69 | 0 | 0.0 | 0.0 | 0.00 | 0.56 | 0.00 | 85 | 1016.7 |
| 20260901110106 | 70 | 0 | 0.0 | 0.0 | 0.00 | 0.56 | 0.00 | 85 | 1016.6 |
| 20260901105551 | 70 | 0 | 0.0 | 0.0 | 0.00 | 0.56 | 0.00 | 84 | 1016.6 |
| 20260901105053 | 70 | 0 | 0.0 | 0.0 | 0.00 | 0.56 | 0.00 | 84 | 1016.6 |
| 20260901104606 | 70 | 0 | 0.0 | 1.0 | 0.00 | 0.56 | 0.00 | 84 | 1016.7 |
| 20260901104052 | 70 | 0 | 0.0 | 1.0 | 0.00 | 0.56 | 0.00 | 84 | 1016.7 |
| 20260901103549 | 70 | 0 | 0.0 | 1.0 | 0.00 | 0.56 | 0.00 | 83 | 1016.7 |
| 20260901103106 | 70 | 0 | 0.0 | 1.0 | 0.00 | 0.56 | 0.00 | 82 | 1016.7 |
| 20260901102549 | 71 | 0 | 0.0 | 0.0 | 0.00 | 0.56 | 0.00 | 82 | 1016.7 |
| 20260901102049 | 71 | 0 | 0.0 | 0.0 | 0.00 | 0.56 | 0.00 | 81 | 1016.6 |
| 20260901101614 | 71 | 0 | 0.0 | 3.0 | 0.00 | 0.56 | 0.00 | 80 | 1016.5 |
| 20260901101049 | 71 | 0 | 0.0 | 3.0 | 0.00 | 0.56 | 0.00 | 79 | 1016.5 |
| 20260901100552 | 72 | 0 | 1.0 | 5.0 | 0.00 | 0.56 | 0.00 | 79 | 1016.4 |
| 20260901100117 | 72 | 0 | 1.0 | 5.0 | 0.00 | 0.56 | 0.00 | 77 | 1016.5 |
| 20260901095549 | 73 | 157 | 0.0 | 2.0 | 0.00 | 0.56 | 0.00 | 74 | 1016.5 |
| 20260901095049 | 73 | 0 | 0.0 | 2.0 | 0.00 | 0.56 | 0.00 | 72 | 1016.4 |
| 20260901094600 | 73 | 0 | 0.0 | 2.0 | 0.00 | 0.56 | 0.00 | 72 | 1016.4 |
| 20260901094049 | 73 | 157 | 0.0 | 3.0 | 0.00 | 0.56 | 0.00 | 72 | 1016.4 |
| 20260901093554 | 73 | 0 | 1.0 | 6.0 | 0.00 | 0.56 | 0.00 | 72 | 1016.3 |
| 20260901093057 | 73 | 157 | 2.0 | 6.0 | 0.00 | 0.56 | 0.00 | 72 | 1016.4 |
| 20260901092557 | 73 | 163 | 2.0 | 6.0 | 0.00 | 0.56 | 0.00 | 72 | 1016.4 |
| 20260901092053 | 74 | 153 | 1.0 | 5.0 | 0.00 | 0.56 | 0.00 | 72 | 1016.4 |
| 20260901091604 | 74 | 153 | 1.0 | 6.0 | 0.00 | 0.56 | 0.00 | 72 | 1016.4 |
| 20260901091054 | 74 | 153 | 2.0 | 6.0 | 0.00 | 0.56 | 0.00 | 72 | 1016.5 |
| 20260901090553 | 74 | 148 | 2.0 | 5.0 | 0.00 | 0.56 | 0.00 | 72 | 1016.5 |
| 20260901090104 | 74 | 148 | 1.0 | 5.0 | 0.00 | 0.56 | 0.00 | 72 | 1016.5 |
| 20260901085555 | 74 | 0 | 1.0 | 4.0 | 0.00 | 0.56 | 0.00 | 72 | 1016.5 |
| 20260901085053 | 73 | 139 | 1.0 | 4.0 | 0.00 | 0.56 | 0.00 | 73 | 1016.5 |
| 20260901084559 | 73 | 144 | 1.0 | 5.0 | 0.00 | 0.56 | 0.00 | 73 | 1016.5 |
| 20260901084054 | 73 | 145 | 2.0 | 5.0 | 0.00 | 0.56 | 0.00 | 73 | 1016.5 |
| 20260901083557 | 74 | 135 | 1.0 | 5.0 | 0.00 | 0.56 | 0.00 | 73 | 1016.5 |
| 20260901083056 | 74 | 135 | 2.0 | 7.0 | 0.00 | 0.56 | 0.00 | 73 | 1016.6 |
| 20260901082555 | 74 | 133 | 2.0 | 8.0 | 0.00 | 0.56 | 0.00 | 73 | 1016.5 |
| 20260901082053 | 74 | 133 | 2.0 | 8.0 | 0.00 | 0.56 | 0.00 | 73 | 1016.6 |
| 20260901081615 | 74 | 0 | 2.0 | 8.0 | 0.00 | 0.56 | 0.00 | 73 | 1016.6 |
| 20260901081052 | 74 | 148 | 2.0 | 6.0 | 0.00 | 0.56 | 0.00 | 73 | 1016.6 |
| 20260901080553 | 74 | 146 | 2.0 | 5.0 | 0.00 | 0.56 | 0.00 | 73 | 1016.6 |
| 20260901080100 | 74 | 140 | 1.0 | 5.0 | 0.00 | 0.56 | 0.00 | 73 | 1016.6 |
| 20260901075553 | 74 | 140 | 1.0 | 3.0 | 0.00 | 0.56 | 0.00 | 73 | 1016.6 |
| 20260901075052 | 74 | 140 | 1.0 | 3.0 | 0.00 | 0.56 | 0.00 | 73 | 1016.6 |
| 20260901074604 | 74 | 140 | 1.0 | 3.0 | 0.00 | 0.56 | 0.00 | 73 | 1016.7 |
| 20260901074055 | 74 | 0 | 0.0 | 3.0 | 0.00 | 0.56 | 0.00 | 73 | 1016.7 |
| 20260901073552 | 74 | 0 | 0.0 | 3.0 | 0.00 | 0.56 | 0.00 | 73 | 1016.7 |
| 20260901073106 | 74 | 140 | 0.0 | 5.0 | 0.00 | 0.56 | 0.00 | 71 | 1016.7 |
| 20260901072553 | 74 | 140 | 1.0 | 7.0 | 0.00 | 0.56 | 0.00 | 72 | 1016.7 |
| 20260901072057 | 74 | 139 | 2.0 | 7.0 | 0.00 | 0.56 | 0.00 | 72 | 1016.7 |
| 20260901071601 | 74 | 136 | 2.0 | 7.0 | 0.00 | 0.56 | 0.00 | 72 | 1016.7 |
| 20260901071055 | 74 | 136 | 3.0 | 7.0 | 0.00 | 0.56 | 0.00 | 72 | 1016.8 |
| 20260901070556 | 75 | 137 | 3.0 | 7.0 | 0.00 | 0.56 | 0.00 | 72 | 1016.7 |
| 20260901070110 | 74 | 139 | 2.0 | 7.0 | 0.00 | 0.56 | 0.00 | 72 | 1016.7 |
| 20260901065553 | 75 | 138 | 2.0 | 7.0 | 0.00 | 0.56 | 0.56 | 72 | 1016.7 |
| 20260901065053 | 74 | 133 | 3.0 | 7.0 | 0.00 | 0.56 | 0.56 | 72 | 1016.8 |
| 20260901064606 | 74 | 124 | 3.0 | 7.0 | 0.00 | 0.56 | 0.56 | 73 | 1016.8 |
| 20260901064053 | 74 | 123 | 2.0 | 6.0 | 0.00 | 0.56 | 0.56 | 74 | 1016.9 |
| 20260901063552 | 74 | 117 | 2.0 | 6.0 | 0.00 | 0.56 | 0.56 | 74 | 1017.0 |
| 20260901063125 | 74 | 119 | 1.0 | 6.0 | 0.00 | 0.56 | 0.56 | 75 | 1017.1 |
| 20260901062549 | 74 | 119 | 1.0 | 6.0 | 0.00 | 0.56 | 0.56 | 75 | 1016.9 |
| 20260901062052 | 74 | 121 | 2.0 | 5.0 | 0.00 | 0.56 | 0.56 | 76 | 1016.9 |
| 20260901061604 | 74 | 0 | 1.0 | 4.0 | 0.00 | 0.56 | 0.56 | 76 | 1017.0 |
| 20260901061049 | 74 | 119 | 1.0 | 8.0 | 0.00 | 0.56 | 0.56 | 77 | 1017.1 |
| 20260901060551 | 74 | 119 | 2.0 | 8.0 | 0.00 | 0.56 | 0.56 | 77 | 1016.9 |
| 20260901060114 | 74 | 111 | 1.0 | 6.0 | 0.00 | 0.56 | 0.56 | 77 | 1017.0 |
| 20260901055548 | 74 | 111 | 0.0 | 8.0 | 0.00 | 0.56 | 0.56 | 77 | 1017.2 |
| 20260901055052 | 75 | 111 | 1.0 | 8.0 | 0.00 | 0.56 | 0.56 | 76 | 1017.2 |
| 20260901054601 | 75 | 111 | 4.0 | 8.0 | 0.00 | 0.56 | 0.56 | 75 | 1017.1 |
| 20260901054052 | 74 | 116 | 3.0 | 7.0 | 0.00 | 0.56 | 0.56 | 77 | 1017.1 |
| 20260901053552 | 74 | 117 | 2.0 | 6.0 | 0.00 | 0.56 | 0.56 | 78 | 1017.0 |
| 20260901053118 | 74 | 118 | 1.0 | 4.0 | 0.00 | 0.56 | 0.56 | 78 | 1017.1 |
| 20260901052549 | 74 | 0 | 1.0 | 4.0 | 0.00 | 0.56 | 0.56 | 78 | 1017.0 |
| 20260901052049 | 74 | 0 | 0.0 | 4.0 | 0.00 | 0.56 | 0.56 | 78 | 1017.0 |
| 20260901051602 | 74 | 118 | 1.0 | 4.0 | 0.00 | 0.56 | 0.56 | 78 | 1016.9 |
| 20260901051050 | 74 | 0 | 0.0 | 2.0 | 0.00 | 0.56 | 0.56 | 78 | 1017.0 |
| 20260901050549 | 75 | 0 | 0.0 | 4.0 | 0.00 | 0.56 | 0.56 | 78 | 1017.0 |
| 20260901050106 | 75 | 0 | 0.0 | 7.0 | 0.00 | 0.56 | 0.56 | 77 | 1017.1 |
| 20260901045552 | 75 | 0 | 1.0 | 7.0 | 0.00 | 0.56 | 0.56 | 78 | 1017.2 |
| 20260901045056 | 75 | 118 | 2.0 | 6.0 | 0.00 | 0.56 | 0.56 | 78 | 1017.3 |
| 20260901044622 | 75 | 116 | 1.0 | 6.0 | 0.00 | 0.56 | 0.56 | 78 | 1017.2 |
| 20260901044051 | 75 | 116 | 1.0 | 6.0 | 0.00 | 0.56 | 0.56 | 77 | 1017.3 |
| 20260901043549 | 75 | 116 | 1.0 | 3.0 | 0.00 | 0.56 | 0.56 | 77 | 1017.2 |
| 20260901043113 | 75 | 0 | 0.0 | 7.0 | 0.00 | 0.56 | 0.56 | 76 | 1017.2 |
| 20260901042551 | 75 | 0 | 0.0 | 8.0 | 0.00 | 0.56 | 0.56 | 76 | 1017.1 |
| 20260901042049 | 75 | 122 | 3.0 | 8.0 | 0.00 | 0.56 | 0.56 | 75 | 1017.0 |
| 20260901041559 | 75 | 122 | 2.0 | 8.0 | 0.00 | 0.56 | 0.56 | 75 | 1016.8 |
| 20260901041053 | 75 | 136 | 0.0 | 3.0 | 0.00 | 0.56 | 0.56 | 76 | 1016.9 |
| 20260901040549 | 75 | 0 | 0.0 | 0.0 | 0.00 | 0.56 | 0.56 | 76 | 1016.9 |
| 20260901040057 | 75 | 0 | 0.0 | 0.0 | 0.00 | 0.56 | 0.56 | 76 | 1016.9 |
| 20260901035556 | 75 | 0 | 0.0 | 0.0 | 0.00 | 0.56 | 0.56 | 76 | 1017.0 |
| 20260901035051 | 75 | 0 | 0.0 | 0.0 | 0.00 | 0.56 | 0.56 | 75 | 1017.0 |
| 20260901034608 | 75 | 0 | 0.0 | 0.0 | 0.00 | 0.56 | 0.56 | 75 | 1017.0 |
| 20260901034051 | 75 | 0 | 0.0 | 0.0 | 0.00 | 0.56 | 0.56 | 75 | 1016.8 |
| 20260901033549 | 75 | 0 | 0.0 | 0.0 | 0.00 | 0.56 | 0.56 | 74 | 1016.8 |
| 20260901033100 | 75 | 0 | 0.0 | 0.0 | 0.00 | 0.56 | 0.56 | 75 | 1016.8 |
| 20260901032551 | 76 | 0 | 0.0 | 0.0 | 0.00 | 0.56 | 0.56 | 74 | 1016.7 |
| 20260901032101 | 76 | 0 | 0.0 | 0.0 | 0.00 | 0.56 | 0.56 | 75 | 1016.6 |
| 20260901031558 | 76 | 0 | 0.0 | 0.0 | 0.00 | 0.56 | 0.56 | 75 | 1016.6 |
| 20260901031053 | 76 | 0 | 0.0 | 0.0 | 0.00 | 0.56 | 0.56 | 74 | 1016.6 |
| 20260901030555 | 76 | 0 | 0.0 | 0.0 | 0.00 | 0.56 | 0.56 | 75 | 1016.4 |
| 20260901025552 | 76 | 0 | 0.0 | 3.0 | 0.00 | 0.56 | 0.56 | 74 | 1016.3 |
| 20260901025056 | 76 | 0 | 1.0 | 3.0 | 0.00 | 0.56 | 0.56 | 73 | 1016.3 |
| 20260901024605 | 76 | 136 | 0.0 | 2.0 | 0.00 | 0.56 | 0.56 | 74 | 1016.2 |
| 20260901024053 | 76 | 136 | 0.0 | 3.0 | 0.00 | 0.56 | 0.56 | 74 | 1016.1 |
| 20260901023553 | 76 | 0 | 1.0 | 3.0 | 0.00 | 0.56 | 0.56 | 75 | 1015.8 |
| 20260901023104 | 76 | 136 | 1.0 | 3.0 | 0.00 | 0.56 | 0.56 | 75 | 1015.7 |
| 20260901022552 | 76 | 0 | 0.0 | 3.0 | 0.00 | 0.56 | 0.56 | 75 | 1015.8 |
| 20260901022053 | 76 | 136 | 1.0 | 3.0 | 0.00 | 0.56 | 0.56 | 76 | 1015.6 |
| 20260901021633 | 76 | 0 | 0.0 | 0.0 | 0.00 | 0.56 | 0.56 | 75 | 1015.8 |
| 20260901021053 | 76 | 0 | 0.0 | 1.0 | 0.00 | 0.56 | 0.56 | 75 | 1015.8 |
| 20260901020552 | 76 | 0 | 0.0 | 3.0 | 0.00 | 0.56 | 0.56 | 74 | 1015.6 |
| 20260901020115 | 76 | 0 | 0.0 | 3.0 | 0.00 | 0.56 | 0.56 | 75 | 1015.3 |
| 20260901015552 | 76 | 136 | 0.0 | 2.0 | 0.00 | 0.56 | 0.56 | 74 | 1015.3 |
| 20260901015056 | 77 | 0 | 0.0 | 0.0 | 0.00 | 0.56 | 0.56 | 74 | 1015.4 |
| 20260901014602 | 77 | 0 | 0.0 | 0.0 | 0.00 | 0.56 | 0.56 | 73 | 1015.4 |
| 20260901014052 | 77 | 0 | 0.0 | 3.0 | 0.00 | 0.56 | 0.56 | 74 | 1015.3 |
| 20260901013552 | 77 | 0 | 0.0 | 3.0 | 0.00 | 0.56 | 0.56 | 73 | 1015.2 |
| 20260901013110 | 77 | 0 | 1.0 | 3.0 | 0.00 | 0.56 | 0.56 | 71 | 1015.1 |
| 20260901012556 | 77 | 0 | 1.0 | 3.0 | 0.00 | 0.56 | 0.56 | 72 | 1015.0 |
| 20260901012051 | 77 | 136 | 0.0 | 2.0 | 0.00 | 0.56 | 0.56 | 72 | 1014.8 |
| 20260901011602 | 77 | 0 | 0.0 | 4.0 | 0.00 | 0.56 | 0.56 | 71 | 1014.8 |
| 20260901011053 | 78 | 0 | 0.0 | 4.0 | 0.00 | 0.56 | 0.56 | 71 | 1014.9 |
| 20260901010552 | 78 | 136 | 2.0 | 4.0 | 0.00 | 0.56 | 0.56 | 70 | 1014.9 |
| 20260901010058 | 78 | 136 | 0.0 | 3.0 | 0.00 | 0.56 | 0.56 | 69 | 1014.9 |
| 20260901005551 | 78 | 0 | 0.0 | 2.0 | 0.00 | 0.56 | 0.56 | 69 | 1014.8 |
| 20260901005051 | 78 | 0 | 0.0 | 0.0 | 0.00 | 0.56 | 0.56 | 69 | 1014.8 |
| 20260901004608 | 78 | 0 | 0.0 | 2.0 | 0.00 | 0.56 | 0.56 | 70 | 1014.9 |
| 20260901004051 | 78 | 0 | 0.0 | 3.0 | 0.00 | 0.56 | 0.56 | 70 | 1014.9 |
| 20260901003551 | 78 | 136 | 0.0 | 3.0 | 0.00 | 0.56 | 0.56 | 69 | 1014.8 |
| 20260901003122 | 78 | 136 | 0.0 | 3.0 | 0.00 | 0.56 | 0.56 | 68 | 1014.9 |
| 20260901002551 | 78 | 136 | 1.0 | 4.0 | 0.00 | 0.56 | 0.56 | 69 | 1015.0 |
| 20260901002053 | 78 | 136 | 1.0 | 4.0 | 0.00 | 0.56 | 0.56 | 69 | 1015.1 |
| 20260901001609 | 78 | 136 | 1.0 | 4.0 | 0.00 | 0.56 | 0.56 | 68 | 1015.1 |
| 20260901001052 | 78 | 0 | 1.0 | 5.0 | 0.00 | 0.56 | 0.56 | 69 | 1015.1 |
| 20260901000552 | 78 | 136 | 1.0 | 9.0 | 0.00 | 0.56 | 0.56 | 68 | 1015.1 |
| 20260901000116 | 78 | 136 | 2.0 | 9.0 | 0.00 | 0.56 | 0.56 | 67 | 1015.0 |
| 20260831235555 | 78 | 134 | 1.0 | 7.0 | 0.00 | 0.56 | 0.56 | 66 | 1015.1 |
| 20260831235052 | 78 | 168 | 3.0 | 7.0 | 0.00 | 0.56 | 0.56 | 66 | 1015.2 |
| 20260831234620 | 78 | 146 | 2.0 | 5.0 | 0.00 | 0.56 | 0.56 | 66 | 1015.3 |
| 20260831234052 | 78 | 146 | 0.0 | 6.0 | 0.00 | 0.56 | 0.56 | 67 | 1015.2 |
| 20260831233554 | 78 | 0 | 1.0 | 6.0 | 0.00 | 0.56 | 0.56 | 68 | 1015.3 |
| 20260831233100 | 77 | 146 | 3.0 | 8.0 | 0.00 | 0.56 | 0.56 | 68 | 1015.4 |
| 20260831232551 | 77 | 108 | 3.0 | 9.0 | 0.00 | 0.56 | 0.56 | 68 | 1015.3 |
| 20260831232051 | 77 | 123 | 3.0 | 9.0 | 0.00 | 0.56 | 0.56 | 66 | 1015.4 |
| 20260831231605 | 77 | 112 | 4.0 | 9.0 | 0.00 | 0.56 | 0.56 | 67 | 1015.4 |
| 20260831231055 | 77 | 142 | 1.0 | 9.0 | 0.00 | 0.56 | 0.56 | 71 | 1015.4 |
| 20260831230552 | 77 | 74 | 3.0 | 9.0 | 0.00 | 0.56 | 0.56 | 71 | 1015.4 |
| 20260831230104 | 77 | 117 | 4.0 | 11.0 | 0.00 | 0.56 | 0.56 | 71 | 1015.3 |
| 20260831225552 | 77 | 144 | 3.0 | 11.0 | 0.00 | 0.56 | 0.56 | 73 | 1015.4 |
| 20260831225053 | 76 | 142 | 6.0 | 12.0 | 0.00 | 0.56 | 0.56 | 72 | 1015.5 |
| 20260831224602 | 77 | 130 | 5.0 | 12.0 | 0.00 | 0.56 | 0.56 | 72 | 1015.6 |
| 20260831224054 | 76 | 126 | 5.0 | 14.0 | 0.00 | 0.56 | 0.56 | 74 | 1015.7 |
| 20260831223551 | 76 | 127 | 6.0 | 14.0 | 0.00 | 0.56 | 0.56 | 76 | 1015.8 |
| 20260831223104 | 76 | 126 | 6.0 | 12.0 | 0.00 | 0.56 | 0.56 | 75 | 1015.9 |
| 20260831222551 | 76 | 121 | 6.0 | 12.0 | 0.00 | 0.56 | 0.56 | 75 | 1015.9 |
| 20260831222055 | 76 | 109 | 5.0 | 11.0 | 0.00 | 0.56 | 0.56 | 76 | 1016.0 |
| 20260831221604 | 75 | 111 | 6.0 | 11.0 | 0.00 | 0.56 | 0.56 | 75 | 1016.1 |
| 20260831221053 | 76 | 115 | 4.0 | 12.0 | 0.00 | 0.56 | 0.56 | 74 | 1016.2 |
| 20260831220551 | 76 | 134 | 4.0 | 14.0 | 0.00 | 0.56 | 0.56 | 76 | 1016.3 |